Weather in Proletarsk

Russia / Rostov Oblast     46°42′13″N   41°43′39″E
temp.,
°C
wind,
m/s
gust,
m/s
humid.,
%
clouds,
%
prec.,
mm/h
press.,
hPa
HPBL,
m
31 july, sat
sat3100:00+25se33250 0.0 100917
03:00+22s22344 0.0 100912
06:00+22se223922 0.0 100919
09:00+30ssw23303 0.0 1009444
12:00+34se22230 0.0 10092923
15:00+35e32205 0.0 10083316
18:00+34e34215 0.0 1008495
21:00+28ese33255 0.0 100926
1 august, sun
sun100:00+26e22275 0.0 100911
03:00+24ese33345 0.0 100922
06:00+25ese113824 0.0 101011
09:00+32ese33253 0.0 1011584
12:00+36se43200 0.0 10103055
15:00+37ese53170 0.0 10093350
18:00+36sw11190 0.0 1009821
21:00+29ne22260 0.0 100913
2 august, mon
mon200:00+28e33340 0.0 100919
03:00+26ese34450 0.0 100949
06:00+26ese23500 0.1 101043
09:00+32se34350 0.2 1011704
12:00+36ese43270 0.0 10102393
15:00+37ese32225 0.0 10092908
18:00+36se34191 0.0 1008566
21:00+29ese353414 0.0 100854
3 august, tue
tue300:00+27ese22451 0.0 100811
03:00+26ese11483 0.0 100811
06:00+25se34475 0.0 100968
09:00+33sse34330 0.0 1009529
12:00+37ssw32212 0.0 10082318
15:00+39nw231835 0.0 10073839
18:00+35nw9102580 0.0 1007594
21:00+29nne4639100 0.1 1008150
4 august, wed
wed400:00+26nnw355259 0.0 1010104
03:00+24n366630 0.0 1011184
06:00+23nnw357386 0.0 1012173
09:00+29n444842 0.0 1013714
12:00+33nnw543774 0.0 10131716
15:00+33nw443470 0.0 10121872
18:00+25nne8136420 0.6 1013384
21:00+22sse236915 2.6 101477